Regional Weather Roundup
Issued by NWS

Home | Current Version | Previous Version | Graphics & Text | Print | Product List | Glossary On
Versions: 1 2 3 4 5 6 7 8 9 10 11 12 13 14 15 16 17 18 19 20 21 22 23 24 25 26 27 28 29 30 31 32 33 34 35 36 37 38 39 40 41 42 43 44 45 46 47 48 49 50
000
ASUS45 KSLC 301610
RWRUT

UTAH REGIONAL WEATHER ROUNDUP
NATIONAL WEATHER SERVICE SALT LAKE CITY UT
1000 AM MDT SUN AUG 30 2015

UTZ001>011-023>025-301700-

NORTHERN UTAH

CITY           SKY/WX    TMP DP  RH WIND       PRES   REMARKS
BRIGHAM CITY   MOSUNNY   74  47  38 W6        30.00S
HILL AFB       PTSUNNY   72  51  48 NE2       30.03R
LOGAN          SUNNY     73  48  41 CALM      30.03R
OGDEN          PTSUNNY   73  50  44 W5        30.00R
PROVO AIRPORT  PTSUNNY   77  52  41 E3        30.03R
SALT LAKE CITY PTSUNNY   77  49  37 N7        29.99R
VERNAL         CLOUDY    76  34  21 CALM      30.11S
WENDOVER       PTSUNNY   75  43  31 S6        30.02S
HEBER CITY     CLOUDY    77  45  31 SW17      30.07S
WEST JORDAN    MOSUNNY   79  48  34 N8        30.02S

$$

UTZ012>022-026-027-301700-

SOUTHERN/CENTRAL UTAH

CITY           SKY/WX    TMP DP  RH WIND       PRES   REMARKS
BLANDING       MOSUNNY   77  44  31 SE8       30.32R
BRYCE CANYON   SUNNY     69  48  47 VRB5      30.32F
CEDAR CITY     MOSUNNY   78  45  30 S15G25    30.14S
DELTA          CLOUDY    80  45  29 S15       30.05S
HANKSVILLE     MOSUNNY   82  45  26 CALM      30.08S
MILFORD        CLOUDY    78  48  34 S13       30.09S
MOAB/CYNLANDS  SUNNY     83  44  25 E10       30.07S
PRICE          PTSUNNY   74  36  25 SE9       30.16S
ST GEORGE      CLOUDY    88  54  31 S3        29.97F
KANAB          SUNNY     79  57  47 CALM      30.20S

$$

REGIONAL REPORTS     COLORADO/ARIZONA

CITY           SKY/WX    TMP DP  RH WIND       PRES   REMARKS
CRAIG, CO      MOSUNNY   76  44  32 NE6       30.19F
GRAND JUNCTION MOSUNNY   77  42  28 SE9       30.12S
RIFLE          SUNNY     70  43  37 VRB3      30.19F
MONTROSE       SUNNY     73  46  38 N8        30.22S
CORTEZ         MOSUNNY   72  50  45 CALM      30.25R
PAGE, AZ       MOSUNNY   81  50  33 SW3       30.09S
GRAND CANYON   SUNNY     73  53  49 SW9       30.30R
KINGMAN        SUNNY     89  53  29 SW15      30.02F
FLAGSTAFF      MOSUNNY   69  54  58 S12       30.34R

$$

REGIONAL REPORTS    NEVADA/IDAHO/WYOMING

CITY           SKY/WX    TMP DP  RH WIND       PRES   REMARKS
LAS VEGAS, NV  PTSUNNY   92  44  19 S8        29.86R
ELY            MOSUNNY   76  35  22 S18       30.13S
ELKO           SUNNY     71  40  32 SW8       30.09S
POCATELLO, ID  SUNNY     72  47  40 SW12      30.05R
BURLEY         MOSUNNY   65  44  46 W14G22    30.04R
EVANSTON, WY   PTSUNNY   73  43  33 SW12      30.18R
ROCK SPRINGS   PTSUNNY   77  38  24 SW13      30.16R
KEMMERER       PTSUNNY   70  39  32 SW10      30.18S

$$


USA.gov is the U.S. government's official web portal to all federal, state and local government web resources and services.